RH
14 16 17 15 15 11 16 18 29 64 82 95 96 91 94 93 82 69 72 74 65 56 48 33 28 24 19 17 15 14 12 11 10 9 10 11 13 24 29 38 40 46 39 33 28 27 23
11 13 20 19 17 15 14 16 20 16 56 92 98 86 90 96 94 96 70 62 81 60 44 44 36 34 30 24 21 21 21 22 24 28 33 36 40 45 45 44 37 29 23 21 17 14 16
12 12 14 23 21 17 17 15 14 22 17 76 100 93 86 89 96 97 97 93 95 86 84 76 65 62 62 49 49 48 52 54 54 52 48 51 51 49 38 29 22 19 15 15 14 16 22
8 11 13 15 25 22 18 20 14 14 24 16 89 95 84 95 88 96 94 95 98 96 99 100 92 79 77 73 65 63 72 70 64 57 54 56 45 36 29 22 16 13 12 10 9 14 14
6 8 10 13 17 26 22 20 20 14 29 24 18 43 28 67 89 91 97 92 94 93 96 92 99 90 86 78 80 88 81 71 62 57 54 43 28 22 17 12 11 10 10 8 9 16 14
3 4 6 8 12 21 26 20 23 22 20 25 22 16 13 24 43 39 77 96 90 90 97 98 98 96 98 96 89 93 88 65 53 46 40 30 21 16 11 10 11 11 20 19 12 9 4
9 5 4 6 9 13 24 25 22 24 41 32 28 23 14 14 13 16 96 72 89 82 94 96 97 97 96 90 93 97 74 59 43 34 24 14 13 12 11 11 12 20 20 10 4 3 2
10 8 6 5 6 8 14 26 23 24 25 27 99 39 17 12 12 13 49 79 93 77 91 94 96 83 88 82 81 73 64 54 26 19 11 11 12 12 12 12 16 20 10 4 3 2 2
17 12 11 10 8 5 8 20 26 24 26 28 37 94 32 13 13 11 19 96 92 62 88 94 82 88 61 71 70 66 66 65 13 10 11 12 13 13 11 14 17 13 6 3 2 2 2
21 20 16 11 9 8 4 11 26 23 32 92 38 77 60 21 16 11 14 99 100 80 82 98 66 86 59 57 59 56 59 70 40 12 13 14 15 13 14 16 14 7 4 2 2 2 2
28 23 18 16 13 10 7 4 20 24 26 29 34 38 36 30 28 18 68 42 44 53 64 71 89 85 64 47 49 46 61 60 14 11 13 16 14 15 18 14 7 4 2 2 2 2 2
25 21 18 16 13 12 10 6 8 23 25 92 34 33 31 82 22 43 39 61 48 55 77 87 81 64 54 44 37 44 56 17 10 12 15 16 17 20 15 8 5 2 2 2 2 2 2
24 20 17 15 14 13 10 9 5 22 26 29 70 100 44 75 29 22 44 57 43 30 60 51 55 52 41 31 38 62 22 9 12 14 17 18 20 16 11 6 3 2 2 2 2 2 3
27 29 22 23 17 10 10 7 5 23 26 36 98 99 59 34 29 71 28 34 50 24 33 32 37 37 31 37 48 57 11 11 14 17 16 15 20 14 9 4 3 2 3 3 3 3 3
32 29 32 34 22 7 7 69 9 24 30 40 96 75 85 92 33 34 38 16 18 12 20 26 30 27 39 46 44 13 11 13 17 16 16 25 25 11 4 3 3 3 3 4 4 4 5
34 35 44 44 10 2 45 96 96 28 46 95 52 60 91 92 42 24 21 13 13 19 23 27 29 37 49 51 17 11 12 18 18 19 25 28 18 7 3 3 4 4 4 5 5 6 6
47 51 54 42 2 2 87 82 71 35 31 59 97 100 99 53 43 35 14 12 17 17 19 36 47 52 64 33 11 11 18 20 16 15 28 36 12 5 3 4 4 4 5 6 7 7 8
57 63 64 21 2 3 80 100 96 42 38 99 98 84 31 86 76 27 14 14 19 17 22 36 63 60 30 14 12 16 19 15 13 27 39 29 4 2 3 4 4 5 6 7 8 9 10
56 73 74 11 2 61 100 54 38 50 52 64 66 77 100 98 68 21 15 22 15 22 32 64 61 26 16 11 14 19 16 13 25 35 42 15 3 3 4 4 4 6 7 8 9 10 11
55 81 79 6 4 74 100 100 46 61 51 100 99 99 99 96 61 27 16 16 18 25 42 60 48 22 12 13 19 19 12 17 28 43 28 4 3 3 4 5 5 6 8 10 10 10 12
64 91 81 4 26 99 100 82 47 71 100 100 98 94 69 61 23 45 36 16 17 26 20 37 32 22 12 17 21 12 11 26 32 43 20 3 3 3 4 5 5 7 9 10 11 12 13
61 85 72 4 10 96 100 76 63 100 99 100 100 99 97 67 39 62 48 13 31 28 29 45 29 16 15 21 16 9 16 19 41 36 8 3 3 4 5 6 5 7 8 9 11 12 14
64 77 61 4 30 100 100 94 64 98 98 98 95 92 100 60 82 81 20 18 49 30 48 41 30 14 18 22 11 12 19 32 41 24 5 4 3 4 5 6 6 7 8 9 11 13 14
73 80 53 4 65 56 80 80 89 100 97 93 92 98 98 95 77 46 30 36 42 59 50 44 16 14 19 21 13 24 28 30 37 24 8 4 3 4 5 7 7 8 10 11 13 16 19
76 85 57 3 31 100 100 96 100 100 98 92 100 99 100 80 96 100 70 61 95 60 47 24 15 18 33 11 14 23 28 31 30 27 22 7 3 4 6 7 8 11 12 14 18 21 21
81 86 56 5 98 100 64 99 100 96 99 84 84 100 94 79 78 97 90 88 72 74 41 18 13 26 28 10 12 16 32 37 34 34 31 8 3 4 6 7 9 11 13 16 20 23 20
97 79 49 6 90 65 53 100 100 100 93 76 78 67 64 75 92 97 82 52 52 69 26 18 17 28 18 11 12 21 28 34 34 37 37 12 3 5 7 8 9 11 16 18 20 18 18
92 82 42 14 40 28 68 100 100 100 100 91 99 90 97 99 99 74 97 42 71 41 34 21 22 24 13 14 17 24 28 29 31 40 46 27 4 4 7 8 11 13 18 18 18 17 16
81 81 34 66 95 32 51 78 100 100 98 100 100 99 100 99 59 97 100 100 70 66 34 34 40 28 26 16 22 29 17 30 41 51 51 24 4 5 8 9 11 14 18 19 18 16 17
Wind_Speed
75 72 70 69 68 64 63 62 63 63 58 55 48 42 40 51 37 43 46 44 43 44 45 43 41 40 39 38 37 36 35 36 37 37 36 37 39 41 43 40 38 33 35 35 34 33 36
79 78 74 72 70 68 66 64 63 61 60 58 52 50 47 33 32 36 40 38 38 43 39 43 43 40 39 38 36 35 35 36 36 37 39 39 38 36 35 33 31 29 29 30 30 32 35
80 79 79 75 73 70 69 66 64 62 60 60 55 55 51 48 36 31 37 38 44 42 39 40 39 37 39 35 33 31 34 34 35 34 32 28 27 27 26 26 28 27 29 30 29 29 29
78 77 79 78 75 73 71 68 67 63 60 60 62 60 56 49 40 36 28 23 42 25 36 36 36 35 33 32 30 30 26 24 23 22 23 23 22 24 24 25 26 26 30 31 27 30 32
78 78 77 77 76 75 72 70 68 65 61 60 61 63 57 52 46 45 33 40 28 22 24 33 38 35 35 33 28 22 16 15 18 18 19 20 21 22 22 22 24 23 30 33 32 26 30
74 78 79 79 76 75 74 72 69 68 62 62 59 58 54 52 53 42 45 38 31 24 16 24 36 34 32 27 25 19 15 16 17 18 19 19 20 21 20 21 24 28 29 25 27 31 31
61 72 77 80 79 75 76 73 70 67 62 62 60 59 54 52 48 41 46 45 39 25 21 10 5 6 12 8 9 11 12 14 16 16 14 15 17 18 19 21 21 22 21 24 25 26 28
56 55 56 59 79 77 75 74 72 69 68 62 46 55 55 52 49 43 45 49 38 24 24 14 8 4 6 8 9 9 9 12 13 13 13 14 15 17 18 20 20 20 19 21 23 24 25
47 54 55 56 59 73 77 75 73 70 69 65 65 51 54 53 49 43 45 48 29 33 32 23 16 9 6 12 10 9 11 13 12 11 12 14 16 18 19 20 20 20 22 22 23 22 22
55 57 58 58 59 62 73 75 74 71 68 61 64 62 53 53 49 46 46 42 38 39 40 33 25 14 11 12 13 14 16 16 15 13 14 15 16 17 18 19 19 18 19 20 20 21 19
52 56 59 60 60 62 65 74 74 73 72 72 66 61 59 52 53 48 46 44 44 40 38 40 35 19 12 13 15 15 19 17 13 13 14 15 16 17 17 16 16 17 18 17 17 17 16
50 55 57 62 62 64 67 68 77 76 72 67 64 61 61 53 52 51 46 43 42 40 44 37 23 21 16 19 18 17 16 13 12 13 14 15 16 16 15 15 16 16 15 15 17 17 17
50 51 54 58 60 66 71 75 78 78 73 69 61 62 65 62 53 50 48 46 45 43 36 32 27 25 22 22 20 17 14 12 13 14 14 15 17 16 15 13 14 14 14 15 16 15 15
51 49 50 55 60 67 77 79 82 82 77 73 65 49 57 60 56 49 49 46 44 39 37 32 26 27 25 21 19 17 14 12 13 14 15 16 17 16 12 11 12 13 13 13 15 15 15
50 48 51 54 60 69 78 81 88 86 80 82 59 53 54 58 58 55 52 49 44 38 35 26 28 27 23 20 17 16 14 14 15 15 15 16 14 12 9 10 11 10 10 12 14 14 15
50 49 48 47 53 73 90 91 85 89 88 82 78 66 65 64 59 55 53 47 42 37 30 29 29 26 23 17 16 15 14 14 15 15 15 14 12 8 8 9 10 10 10 12 13 15 16
47 45 42 39 54 77 103 89 85 92 86 78 74 79 62 60 63 62 53 48 42 41 28 29 27 24 22 18 18 17 14 15 16 16 15 14 10 9 8 9 9 10 11 12 14 16 17
43 37 35 34 54 83 102 87 90 93 91 74 72 75 77 75 64 60 54 48 45 36 32 29 24 24 20 20 18 16 15 16 15 13 14 13 11 9 9 9 10 10 11 13 14 16 18
40 35 30 34 63 102 96 96 96 93 92 87 87 80 78 72 69 61 56 48 45 37 34 29 28 24 21 21 18 17 14 14 12 13 13 13 11 10 9 10 10 10 12 14 15 16 19
42 35 29 38 81 100 88 89 97 94 93 94 85 90 81 60 60 56 54 52 45 42 37 33 29 25 24 19 18 15 14 13 11 11 13 13 12 10 10 10 10 10 12 14 15 17 18
41 37 31 44 103 104 86 93 103 102 91 85 70 81 73 66 54 55 52 50 44 39 39 36 30 27 24 19 17 14 13 10 10 13 13 13 13 11 11 11 10 11 13 14 16 18 20
42 38 32 52 114 113 97 104 104 96 81 79 69 78 79 61 62 61 53 51 42 40 33 30 28 26 20 20 18 13 14 11 12 13 14 15 13 12 12 12 12 12 15 16 18 20 20
46 38 35 60 117 98 97 96 107 101 93 79 69 82 72 66 64 60 54 47 42 37 36 34 31 28 24 20 15 15 13 12 13 14 15 15 15 13 13 13 12 12 16 18 19 21 21
51 45 38 67 115 104 100 101 107 85 84 77 79 78 75 68 60 55 53 46 43 40 36 33 31 25 22 17 16 15 14 14 14 16 16 17 17 14 13 12 11 14 16 17 18 21 21
56 49 45 77 125 110 94 110 91 77 82 79 69 76 67 62 53 51 46 45 45 38 37 35 35 27 23 22 16 16 16 14 12 16 17 18 17 15 14 12 13 11 15 16 17 20 21
59 53 48 88 113 99 103 100 83 89 79 78 75 69 72 60 56 44 44 46 44 42 40 39 31 25 28 20 17 16 16 15 17 17 18 18 18 15 14 13 14 12 15 16 16 17 21
58 53 52 95 121 112 114 96 79 77 80 84 77 80 77 62 54 48 44 43 46 46 38 29 27 29 23 19 18 18 16 15 16 18 18 19 19 15 16 13 14 14 15 15 17 20 22
62 57 55 106 121 113 114 99 86 80 76 86 65 75 74 66 57 47 48 50 44 37 32 28 30 27 24 22 19 16 14 15 16 19 20 20 20 17 16 13 13 14 14 16 18 20 22
63 62 56 118 117 114 113 95 89 86 87 82 61 67 65 63 55 48 49 45 38 33 30 30 30 30 23 22 21 16 16 15 18 21 21 19 18 18 15 14 13 13 14 16 17 19 21
Wind_Direction
243 242 240 238 237 232 231 230 232 237 237 241 245 250 249 230 230 241 246 250 253 257 263 266 268 270 271 274 277 279 281 284 286 288 290 291 293 295 296 294 294 294 292 291 292 297 298
242 240 239 238 236 234 232 230 230 233 234 236 238 247 255 244 260 227 235 244 249 257 258 263 265 267 269 272 274 279 283 285 287 290 291 292 291 289 290 293 294 295 296 301 310 306 303
239 238 238 237 236 234 232 232 229 228 230 230 233 241 247 256 250 216 248 254 242 245 249 253 258 261 267 267 271 275 280 286 286 286 285 285 286 289 290 295 300 307 308 311 314 308 307
236 234 234 235 235 234 233 231 230 228 226 230 228 236 243 245 257 239 257 254 233 252 237 243 246 250 257 263 265 271 276 277 277 277 277 279 284 290 298 300 304 310 311 308 311 314 314
234 233 231 231 232 232 231 230 231 229 226 226 229 232 238 240 246 251 246 260 268 268 275 240 239 245 250 263 259 262 265 265 276 280 279 284 290 298 302 307 307 311 318 320 318 320 321
231 232 230 228 228 230 229 229 227 229 227 225 227 231 231 233 238 241 248 246 258 274 282 242 241 249 248 254 251 245 250 263 271 278 283 288 293 294 305 318 319 320 318 321 321 326 328
228 226 228 224 226 226 227 226 226 225 225 225 226 229 227 231 235 233 245 246 249 261 271 247 226 169 217 213 222 220 253 270 277 278 286 291 293 305 317 318 317 316 316 323 325 326 328
226 224 223 223 224 224 224 223 223 222 223 221 221 225 226 227 232 231 236 243 240 250 262 270 215 240 202 214 222 244 270 293 276 276 292 298 306 315 318 319 318 320 320 322 327 328 334
230 227 225 227 225 226 222 221 220 219 221 221 220 223 220 224 227 228 230 239 239 240 249 243 268 241 251 223 233 261 288 306 299 296 299 308 315 320 321 320 321 319 323 328 331 336 324
236 230 229 224 225 224 223 219 216 215 216 218 219 218 223 223 224 224 226 235 242 243 250 241 257 263 263 246 250 276 292 294 295 299 307 313 317 318 319 318 318 323 330 331 333 330 352
239 235 231 228 225 223 221 220 214 210 213 216 220 218 224 225 225 225 228 232 236 238 243 250 244 259 259 265 263 277 289 285 285 295 304 309 312 315 315 316 323 331 331 331 331 342 352
237 238 237 234 229 224 222 217 214 208 208 207 216 218 220 211 217 219 223 227 231 235 243 250 245 248 261 269 269 270 280 271 282 292 301 304 307 310 313 319 327 330 329 322 331 349 356
235 234 234 236 234 223 221 216 212 205 203 208 216 211 216 219 220 218 220 223 226 229 233 241 247 252 256 256 264 264 264 269 280 288 297 305 311 311 308 316 329 327 319 326 337 348 358
231 237 236 238 240 231 216 215 207 200 198 200 205 199 207 214 217 214 218 221 225 229 234 240 244 249 248 251 257 255 258 268 278 286 298 301 296 296 301 316 318 315 324 336 340 347 357
232 240 240 243 246 224 210 198 199 196 194 199 189 207 214 208 213 214 216 218 221 228 231 235 242 244 250 247 247 245 253 263 274 281 284 284 279 279 292 307 315 323 331 338 343 348 349
235 245 247 249 234 203 187 191 190 191 188 192 204 205 208 214 211 212 214 216 220 226 223 225 233 237 233 235 239 243 256 267 277 280 283 279 264 268 294 309 313 320 329 336 340 346 351
237 247 248 251 212 193 183 179 186 188 188 190 194 201 209 213 214 214 212 213 215 221 214 223 225 226 226 228 233 242 255 264 274 278 279 269 260 271 289 302 311 317 322 331 337 340 343
238 244 247 235 203 187 177 185 185 184 183 192 195 205 207 211 209 208 208 210 213 213 211 220 217 222 223 224 231 245 257 266 269 273 273 255 246 257 283 300 303 309 317 328 333 339 340
237 242 244 221 194 179 173 187 185 181 183 192 196 202 206 204 201 203 203 206 211 207 207 210 216 221 218 222 231 245 256 261 266 268 258 243 241 258 277 289 301 304 321 326 334 338 338
236 240 236 206 184 175 177 169 181 179 182 196 197 196 199 189 196 200 202 203 202 204 204 214 218 216 218 222 234 245 251 256 261 265 247 240 240 259 274 286 293 304 315 327 338 339 341
230 228 229 197 178 170 167 177 177 178 183 193 192 192 199 193 196 201 198 207 202 203 208 210 211 213 216 222 235 243 249 251 266 261 246 238 241 260 269 285 289 301 313 324 333 337 339
224 224 217 196 185 185 177 178 178 180 191 191 200 196 192 200 205 198 197 204 199 208 208 208 211 214 215 223 229 242 242 252 260 252 239 238 242 259 268 281 285 298 308 318 325 328 331
217 216 208 190 188 177 182 180 178 182 188 190 187 196 198 200 198 193 200 196 195 201 198 198 207 211 216 224 229 239 241 249 250 243 241 238 242 255 267 279 284 294 306 316 321 323 328
211 213 201 188 183 181 177 179 181 179 188 187 193 192 200 192 196 200 203 196 197 193 198 203 211 209 216 220 229 229 233 244 252 249 243 238 243 256 268 276 288 295 307 315 319 324 331
206 205 197 186 184 177 181 186 182 184 188 191 187 188 193 189 194 197 192 191 196 192 198 203 207 205 211 218 223 228 237 244 257 253 250 244 243 253 267 277 289 302 310 316 324 327 336
202 198 195 184 182 174 181 178 176 185 181 183 187 195 191 202 198 193 189 194 198 200 205 207 206 199 216 217 223 234 240 250 253 255 259 251 247 251 263 277 293 307 310 319 328 330 336
194 194 191 183 181 179 179 176 176 177 185 184 189 196 200 193 196 195 189 202 201 204 209 208 202 212 213 217 226 236 250 254 261 265 262 250 243 249 260 277 293 306 307 321 328 333 337
195 190 187 182 181 180 181 183 178 184 184 189 188 192 193 196 195 190 195 201 197 205 212 206 208 212 214 217 228 240 255 258 264 262 260 251 243 249 258 277 288 302 308 320 326 333 335
186 187 188 179 176 178 180 176 183 184 189 187 186 188 192 190 191 189 201 189 196 207 207 203 204 211 216 222 227 234 252 257 265 259 255 253 245 243 256 271 287 296 303 316 322 327 332